Dewpoint
23 17 10 8 9 15 14 11 9 12 8 12 9 8 9 9 10 12 14 16 19 14 12 12 11 10 10 10 10 10 10 5 4 4 4 4 3 3 3 3 4 4 4 8 10 9 9 10 11 11 6 7 10 10 8 9 7 6 4 7 5 5 4 2 3 2 2 2 4 3 -2 -3 -1 -0 -0 2 4 3 3 10 8 9 7 6 5 6
23 14 8 14 13 16 17 15 17 15 15 10 12 10 12 12 11 11 10 14 16 12 13 14 11 10 9 9 9 9 7 6 4 4 3 3 3 3 4 4 5 4 6 5 5 6 8 10 9 9 7 12 7 9 7 8 8 6 3 2 2 1 1 1 -1 2 3 3 3 -1 -1 -2 -2 -1 -3 -4 -3 -0 3 8 7 6 7 6 4 4
15 9 10 14 17 17 17 17 15 12 14 12 10 10 9 13 12 13 11 16 15 13 11 12 8 8 8 9 10 11 8 9 7 5 5 5 5 4 4 4 6 5 5 6 5 6 6 8 9 7 7 5 7 5 7 6 5 6 5 3 3 3 1 -0 1 2 1 1 5 0 -1 -1 -2 -2 -2 -2 3 2 2 3 3 4 6 5 4 4
12 14 14 17 16 13 13 17 14 13 15 9 8 7 11 13 7 11 15 13 12 11 9 10 10 9 10 10 7 7 10 10 8 5 4 6 5 5 6 6 6 6 7 7 6 6 5 6 7 8 6 5 6 7 5 5 4 4 9 4 3 3 1 1 2 9 2 2 1 3 1 0 -1 -2 0 -1 1 2 2 1 -0 2 4 4 3 3
10 13 21 18 14 12 11 13 12 12 10 14 9 8 8 8 7 8 9 10 12 9 15 13 10 9 6 4 4 4 7 9 9 9 10 8 6 5 5 4 5 5 7 7 6 7 6 6 6 6 7 5 4 5 5 5 3 2 6 7 5 3 2 3 6 7 9 7 7 4 4 5 4 2 0 -0 -1 -1 -0 1 0 1 1 2 3 3
11 15 18 13 13 12 9 10 9 9 12 11 13 11 10 7 8 9 10 8 6 4 9 8 5 6 6 7 6 6 5 5 6 8 8 9 9 10 8 7 7 7 8 7 7 7 8 7 7 7 6 5 4 3 4 4 4 4 4 5 5 5 4 4 4 7 8 9 4 1 -1 -2 -3 -2 -2 -4 -4 -2 -4 -3 -3 -3 -3 0 1 1
14 17 18 14 10 11 9 8 9 9 8 9 14 12 9 10 11 10 8 7 6 3 4 7 2 7 6 6 7 7 5 5 6 8 7 7 8 8 9 9 9 8 9 9 8 7 6 7 7 7 5 4 3 2 3 3 4 4 3 5 5 6 5 3 4 6 8 4 2 -1 -1 -2 -3 -5 -5 -5 -5 -3 -4 -2 -4 -3 -2 0 -2 -2
17 13 12 11 10 9 10 8 8 13 11 13 14 11 11 11 9 8 8 7 7 11 9 4 4 1 5 5 7 5 5 6 7 9 10 9 9 9 8 8 9 10 9 10 10 9 8 8 8 7 8 5 2 4 4 3 3 3 4 4 4 5 8 4 3 4 7 2 0 1 -2 -1 -3 -5 -5 -5 -6 -5 -2 -3 -4 -4 -2 -1 -3 -4
12 11 10 10 9 8 8 10 9 11 9 12 13 14 11 11 9 9 8 8 9 4 4 3 3 2 1 4 6 5 5 6 7 8 10 11 11 11 11 12 11 12 12 11 11 11 10 10 9 9 8 7 4 2 3 2 2 1 1 6 5 4 7 7 4 4 4 6 1 0 -1 -2 1 -2 -3 -2 2 1 1 -1 -1 -1 -3 -4 -4 -4
18 12 12 10 9 9 10 9 12 10 9 11 14 14 14 14 14 12 10 8 5 2 -1 1 3 1 6 7 7 7 4 6 8 10 11 12 12 12 14 13 14 13 13 13 12 12 12 11 11 10 9 8 6 4 3 3 1 1 1 3 5 4 4 6 4 7 3 4 6 -0 -1 -1 -3 -1 0 0 -1 -2 -2 -2 -3 -6 -7 -6 -5 -4
17 28 24 11 9 11 12 13 12 11 11 17 9 7 11 9 9 8 6 3 3 -4 2 4 5 4 3 5 6 5 5 9 10 11 11 13 13 13 15 14 15 13 13 13 13 13 13 13 12 12 10 9 8 4 2 3 1 -0 -1 2 5 4 3 4 5 6 4 2 4 3 -0 -2 -2 -3 -4 -5 -5 -6 -6 -7 -7 -7 -7 -6 -6 -5
17 18 20 21 25 14 12 11 19 15 16 9 6 7 10 7 7 6 5 3 -2 -2 1 3 2 2 -1 4 6 9 15 12 11 13 12 10 12 14 15 15 14 14 13 13 13 13 13 13 12 12 10 9 8 5 1 -1 -1 1 -2 -1 2 3 3 3 4 5 5 3 0 1 1 -1 -2 -2 -4 -5 -6 -7 -7 -8 -8 -8 -7 -7 -6 -5
11 15 18 17 27 13 11 10 13 14 13 11 9 9 5 4 2 -4 2 -1 -5 -0 1 3 4 4 3 3 9 9 9 13 14 12 11 12 12 13 13 14 15 13 12 13 13 13 13 12 11 11 11 10 8 4 3 0 -1 -1 -1 -0 -1 -0 3 2 3 3 3 3 2 -0 -1 -1 -1 -3 -4 -6 -7 -7 -8 -8 -8 -8 -7 -7 -6 -5
11 16 16 16 14 20 11 9 10 10 11 7 6 4 3 1 -4 -6 -0 -5 -2 5 6 3 2 3 5 5 9 7 9 12 14 16 16 15 13 13 14 15 12 13 12 12 12 11 11 11 10 11 10 9 7 6 3 2 4 -0 -1 -2 -2 -1 0 2 1 1 1 -0 -0 1 -1 -3 -1 -2 -5 -6 -7 -7 -8 -8 -8 -7 -7 -7 -6 -5
3 8 8 14 13 14 11 10 10 10 8 7 6 6 3 1 -1 -4 -7 -4 -4 4 6 7 -2 3 -2 12 9 11 12 12 12 14 14 13 14 13 12 11 11 11 11 11 10 11 12 11 12 10 10 9 8 7 4 1 0 0 0 0 -0 -1 -1 0 1 0 0 -1 -1 -1 -1 -3 -4 -4 -3 -4 -5 -6 -7 -7 -7 -6 -6 -6 -5 -4
7 8 8 13 13 13 10 13 10 7 6 7 5 9 6 1 6 -0 -4 -5 -4 -0 4 -2 5 6 7 10 10 11 11 12 12 12 13 12 11 11 10 10 10 11 11 11 11 11 12 12 12 9 9 9 8 7 5 3 1 -0 0 -0 -1 -1 -1 -1 2 -1 -1 -1 -1 -1 -2 -3 -3 -0 -3 -3 -2 -3 -5 -6 -6 -6 -6 -5 -5 -4
9 6 14 13 12 11 11 15 10 10 4 7 7 2 5 10 4 -2 1 -2 -1 -4 2 -7 3 5 7 7 9 13 11 11 12 13 13 13 13 13 12 11 11 11 11 11 12 11 12 12 11 10 9 8 7 8 7 5 3 0 -0 1 -1 -1 -1 -2 1 -1 -2 -2 -1 -1 -3 -3 -3 -2 -1 -3 -4 -4 -4 -4 -5 -5 -5 -5 -4 -5
3 7 13 11 11 14 15 15 12 12 12 9 2 4 7 6 8 5 -3 -8 -12 -3 2 1 3 6 4 4 14 13 9 10 11 12 13 12 13 11 11 11 11 11 12 13 13 13 13 12 12 10 9 8 7 6 6 5 4 1 -0 -1 -0 1 -1 -2 -1 -0 -2 -1 -1 -2 -2 -3 -3 -3 -3 -3 -3 -4 -4 -5 -4 -4 -4 -4 -5 -6
15 6 11 13 13 13 14 15 11 10 14 8 7 10 6 -1 2 6 -2 -3 -4 -5 -3 1 1 2 5 10 11 9 10 10 11 11 12 12 12 11 11 11 12 12 12 12 13 13 13 13 12 12 11 10 8 7 5 4 3 0 -1 -0 -1 -0 -0 -1 -1 -1 -0 -2 -2 -2 -2 -3 -4 -5 -5 -5 -5 -5 -4 -4 -5 -5 -5 -6 -7 -6
11 3 10 14 12 14 12 12 9 8 8 10 11 8 9 7 -1 -0 0 0 2 0 -1 4 -5 4 5 10 10 8 10 11 11 12 11 11 11 10 10 11 11 12 13 14 14 14 14 14 14 13 13 12 11 9 6 3 0 -1 -1 0 1 1 -1 -1 -2 -0 0 -1 -2 -3 -3 -3 -4 -4 -5 -5 -6 -7 -6 -6 -6 -6 -7 -7 -6 -7
10 10 3 11 13 13 10 11 10 8 5 5 5 3 5 -1 6 6 -2 2 3 -7 -7 -6 2 6 9 11 9 12 13 12 12 11 11 10 10 11 11 11 12 13 14 15 15 15 15 15 15 15 16 15 12 8 5 2 0 -0 -1 -1 -1 -1 -1 -1 -0 -2 -2 -1 -2 -2 -4 -4 -4 -5 -5 -6 -7 -7 -7 -7 -5 -7 -8 -7 -7 -7
7 10 6 10 9 10 10 12 11 9 9 9 11 8 11 4 1 1 6 -3 -4 -1 -0 -9 4 8 9 12 11 10 11 10 10 10 10 11 11 12 12 13 14 15 15 16 16 16 16 16 17 18 18 17 16 13 10 5 0 -1 -1 -1 -2 -2 -1 -1 -1 -1 -3 -3 -4 -4 -5 -5 -6 -6 -6 -6 -7 -6 -7 -7 -8 -7 -7 -8 -8 -8
11 10 9 8 9 8 11 11 13 11 10 10 10 10 9 4 4 -0 -0 1 -2 -1 -7 -5 -5 5 12 13 11 10 10 10 10 10 11 12 13 13 13 14 15 16 16 17 17 17 17 18 19 20 20 20 18 17 15 11 6 3 1 -0 -0 -0 -1 -1 -2 -3 -3 -4 -4 -5 -5 -6 -6 -6 -6 -6 -6 -6 -7 -8 -8 -7 -7 -7 -7 -7
24 5 2 7 10 9 10 10 11 10 9 9 8 8 8 4 8 10 6 2 2 -5 -3 -7 -2 6 9 11 10 10 10 10 11 12 13 13 13 13 13 14 16 16 17 18 18 18 18 20 21 21 21 20 20 20 19 17 15 10 6 3 1 -1 -1 -2 -3 -4 -5 -5 -5 -5 -6 -6 -6 -6 -7 -7 -7 -7 -8 -7 -7 -5 -6 -6 -7 -7
5 11 8 2 3 4 8 9 10 10 9 8 5 7 6 2 1 -2 -2 -5 2 2 6 3 5 8 12 14 10 10 11 12 13 13 13 13 13 13 14 15 16 17 18 19 18 18 20 21 21 21 21 21 21 20 20 20 18 16 13 8 3 1 -1 -3 -3 -4 -5 -6 -6 -6 -6 -6 -6 -6 -6 -7 -7 -8 -8 -7 -7 -7 -7 -7 -8 -8
7 10 4 1 -0 2 2 3 5 7 3 8 7 7 6 3 3 3 3 -3 0 3 4 -2 5 8 10 11 10 11 12 13 13 13 13 13 13 14 15 17 18 18 19 19 18 19 21 22 21 21 22 21 21 21 21 21 20 19 17 13 8 3 0 -2 -4 -4 -5 -6 -6 -6 -7 -7 -7 -7 -7 -7 -7 -8 -7 -7 -7 -7 -6 -7 -8 -8
4 9 9 8 8 7 9 9 13 16 10 7 6 5 5 4 1 1 2 -1 5 1 5 6 7 9 9 10 11 12 13 13 12 13 13 13 14 16 17 18 18 19 19 19 19 21 22 22 22 22 22 22 22 22 21 21 21 19 18 15 12 7 2 -2 -4 -4 -5 -5 -6 -6 -7 -7 -7 -7 -7 -6 -7 -7 -6 -7 -7 -7 -7 -6 -6 -7
2 5 9 10 10 10 10 10 14 14 10 10 8 9 6 4 3 5 5 7 7 3 7 7 9 8 10 11 12 12 13 12 13 13 13 14 15 17 18 19 22 19 20 20 21 22 22 22 22 22 22 22 22 22 22 22 21 19 18 17 14 10 4 -2 -4 -5 -5 -5 -6 -6 -6 -6 -6 -6 -6 -6 -6 -6 -6 -5 -7 -6 -6 -5 -6 -6
4 3 3 5 7 9 10 10 10 10 10 10 10 10 10 6 4 5 6 9 8 6 8 10 10 9 11 12 12 12 12 12 13 13 14 15 18 19 19 19 19 19 20 20 22 23 22 22 22 23 23 23 23 22 22 21 20 20 19 17 15 11 5 -0 -3 -4 -5 -6 -6 -6 -6 -6 -6 -6 -6 -5 -6 -5 -5 -5 -6 -5 -3 -4 -4 -2
7 6 1 3 8 11 12 12 12 12 11 10 8 11 12 8 7 8 9 9 8 8 10 10 10 10 11 11 12 12 13 13 13 14 17 19 19 19 19 19 19 20 20 21 23 23 23 23 23 23 23 23 23 23 22 21 20 20 19 17 15 13 8 -1 -3 -4 -5 -6 -6 -5 -5 -4 -4 -5 -5 -4 -5 -5 -4 -5 -3 -2 -1 -1 -2 -0
7 7 10 3 4 9 9 9 9 11 9 9 10 10 10 11 10 9 7 9 8 8 9 9 9 10 12 12 13 13 14 14 15 18 19 19 19 19 19 19 20 20 21 23 23 23 23 23 24 23 24 24 23 23 22 21 20 20 19 18 16 14 10 2 -3 -4 -4 -5 -5 -4 -4 -4 -4 -3 -4 -4 -4 -1 -1 -2 -1 -1 -2 -1 -0 -1
5 5 -1 -1 3 8 9 8 9 9 10 8 9 8 8 9 7 7 6 10 6 9 10 7 8 11 14 13 13 14 16 17 18 19 19 19 19 20 20 20 20 21 22 23 23 24 24 24 24 24 24 24 23 23 22 21 20 20 19 18 16 14 9 2 -2 -3 -3 -2 -4 -3 -3 -3 -3 -3 -2 -2 0 0 0 -1 -1 -0 0 0 -1 -1
3 1 3 0 3 7 9 8 8 9 7 2 3 7 9 9 10 9 10 11 11 11 10 10 12 14 12 14 15 17 18 18 19 19 19 20 20 20 20 20 21 23 24 24 24 24 24 24 24 24 24 24 23 22 22 21 20 20 20 18 16 13 9 3 -1 -2 -1 -2 -2 -3 -2 -2 -1 -0 2 2 1 1 1 0 -1 -0 -0 -1 -1 -1
1 2 1 3 1 4 6 8 9 8 2 1 8 9 10 10 10 9 10 11 11 12 12 13 12 12 13 16 17 17 18 18 19 20 21 20 20 20 21 21 23 24 25 25 25 25 25 25 25 25 24 24 23 23 22 21 21 21 20 18 16 13 9 5 2 -1 -0 -0 -1 -1 -1 0 2 2 2 2 2 1 1 -0 -1 -1 -1 -1 -1 -2
4 2 2 -3 3 6 6 7 8 -2 1 8 9 9 10 10 10 9 10 11 11 12 12 12 12 14 18 18 18 18 19 20 20 21 21 21 21 21 21 23 24 25 25 25 25 25 25 25 25 25 24 24 23 22 21 21 21 21 20 19 16 13 9 6 3 2 1 1 1 1 3 2 1 2 2 1 1 1 0 -1 -1 -1 -1 -2 -2 -2
4 2 1 5 -3 1 1 -3 1 2 7 10 9 11 12 10 9 9 11 11 11 12 11 10 16 18 18 18 18 19 20 21 21 22 22 21 21 22 23 24 24 25 25 25 25 25 25 25 25 25 24 24 23 22 21 21 21 21 21 19 16 13 10 7 4 3 2 2 1 0 1 1 2 2 2 1 1 0 -1 -2 -2 -2 -2 -3 -3 -3
9 -1 4 6 2 2 -4 -1 8 7 7 9 10 11 11 12 11 9 9 11 11 10 10 16 19 19 18 19 20 21 22 22 22 21 21 22 23 24 25 25 25 26 25 25 25 25 25 26 26 25 25 24 23 22 21 20 21 21 21 19 17 14 11 8 6 4 3 3 2 2 1 2 1 2 2 1 -0 -1 -1 -2 -3 -3 -3 -3 -4 -4
12 8 9 5 4 1 4 3 1 -3 -1 7 10 11 11 10 10 10 7 9 11 10 14 19 18 19 20 20 21 22 23 23 20 20 22 23 24 24 25 25 25 25 25 26 26 26 26 26 27 26 24 24 23 21 20 20 20 21 21 19 17 14 12 10 8 7 6 4 4 3 3 3 2 2 1 1 0 -1 -2 -2 -2 -3 -3 -4 -5 -5
10 10 7 3 5 1 1 2 -1 0 5 9 11 12 13 12 9 8 4 7 13 18 20 19 20 20 21 21 22 23 23 20 19 21 22 24 24 25 24 25 25 25 25 26 26 26 27 26 27 26 25 24 23 20 19 19 20 21 21 20 17 14 12 11 10 9 8 7 6 4 3 3 2 2 2 1 0 -0 -1 -2 -3 -3 -3 -4 -5 -5
9 2 2 4 3 0 -8 -0 2 -4 2 10 12 13 14 8 8 9 9 8 18 20 20 21 21 21 22 23 23 23 22 19 20 22 24 24 25 25 24 25 25 25 26 26 27 27 28 28 26 23 24 24 22 20 19 19 20 20 21 20 17 14 13 12 12 12 11 9 7 5 4 3 3 2 2 1 1 -0 -1 -1 -3 -3 -4 -5 -5 -5
4 2 -0 7 -5 2 7 -3 -5 5 9 13 13 17 17 8 10 9 9 15 20 21 22 22 22 23 23 23 23 22 23 23 24 24 25 25 25 25 25 25 25 26 27 27 27 29 28 26 25 24 24 23 21 19 19 20 20 20 21 20 16 14 14 14 14 13 11 9 7 5 4 4 2 2 1 1 0 -0 -2 -3 -3 -4 -5 -5 -6 -6
-1 -7 1 -3 -1 0 -2 3 8 7 13 13 17 19 14 18 12 13 19 22 22 22 23 23 23 23 24 23 23 23 24 24 25 25 25 25 24 24 25 25 25 25 26 27 29 28 27 25 25 24 22 20 19 19 20 20 20 21 21 17 15 15 16 15 15 13 11 8 6 5 4 3 2 2 1 1 -0 -2 -3 -3 -3 -4 -5 -7 -7 -7
5 3 1 2 2 1 -2 -2 3 6 9 17 18 18 17 18 18 21 22 22 23 23 23 23 24 24 24 24 24 24 25 25 25 25 24 24 24 24 24 24 24 25 26 27 26 25 26 24 23 21 20 19 19 20 21 20 20 21 19 16 16 17 17 16 15 12 10 7 6 4 3 3 1 1 1 -1 -2 -3 -4 -5 -5 -6 -6 -7 -7 -8
5 4 3 1 3 6 -0 5 7 15 17 17 19 18 19 20 22 23 23 22 24 24 24 24 24 24 25 25 25 25 25 25 24 24 24 24 24 24 24 24 24 25 25 24 23 23 23 21 20 19 19 19 20 19 19 20 22 20 18 17 18 18 17 16 14 11 8 6 5 4 3 2 1 0 -0 -2 -3 -4 -5 -6 -6 -7 -8 -8 -9 -10
12 10 10 9 9 9 13 15 17 18 18 19 21 21 22 23 23 24 24 24 24 24 25 24 24 25 26 25 25 26 26 24 24 24 23 22 23 23 23 23 22 21 20 20 20 20 20 20 18 19 19 17 17 17 19 20 21 19 18 18 18 17 16 15 13 10 8 6 4 3 2 1 -0 -1 -2 -3 -4 -5 -6 -7 -7 -8 -9 -9 -10 -11
14 14 14 12 13 14 16 17 19 18 19 21 22 23 23 23 24 24 24 24 25 25 25 25 25 25 25 26 26 25 24 25 23 22 22 22 23 21 21 20 19 18 18 18 17 17 18 18 18 18 16 17 16 15 16 17 19 18 17 17 17 17 15 13 11 9 7 6 4 2 1 -1 -2 -2 -3 -4 -5 -5 -7 -8 -9 -10 -10 -10 -11 -11
13 14 16 14 18 17 13 17 17 18 21 22 22 23 24 24 24 24 24 25 25 26 26 26 26 26 26 27 26 25 24 22 21 20 22 24 20 18 18 17 16 17 17 16 16 17 17 18 16 16 16 12 12 13 15 17 18 15 15 16 16 15 13 11 9 8 7 5 3 1 -0 -2 -3 -4 -5 -5 -6 -6 -7 -8 -9 -10 -10 -11 -11 -11
16 17 18 18 19 18 16 17 19 21 22 23 23 22 22 23 23 24 25 26 26 26 26 26 27 27 26 25 25 24 22 20 19 20 22 18 16 16 16 15 16 16 17 16 16 15 15 14 15 14 11 11 12 13 16 16 13 14 14 15 14 12 10 8 7 7 7 5 2 -1 -2 -3 -4 -5 -6 -6 -7 -8 -8 -9 -9 -10 -11 -10 -10 -11
17 18 16 19 19 19 19 19 21 22 21 23 22 22 23 23 24 24 25 25 25 25 26 27 28 26 25 24 24 22 19 18 20 20 15 15 15 15 15 15 16 16 15 13 12 12 13 14 11 10 10 11 12 15 14 11 12 12 14 13 11 9 7 6 5 6 6 5 2 -0 -3 -3 -4 -5 -7 -7 -8 -8 -9 -10 -10 -10 -10 -9 -8 -9
20 19 20 20 18 17 18 19 22 19 18 20 21 22 23 24 24 24 24 24 25 26 27 26 25 25 24 23 22 19 17 19 18 14 14 14 15 15 15 15 14 11 9 10 11 12 11 8 9 10 10 10 13 14 10 10 11 13 12 10 9 7 6 4 4 4 5 4 1 -1 -3 -4 -5 -6 -7 -8 -9 -9 -9 -6 -0 -5 -10 -10 -2 2
20 20 20 19 19 18 20 22 23 23 22 22 23 24 24 24 24 24 24 25 27 27 27 24 22 22 21 20 19 15 18 16 13 14 14 15 15 15 14 11 9 9 9 9 11 8 6 7 7 7 8 10 14 10 10 9 10 9 8 8 6 5 5 3 2 2 4 3 1 -1 -4 -4 -5 -6 -7 -8 -9 -9 -10 -10 -5 7 7 4 1 5